| time (UTC) | temp C | wind direction | speed KPH | gust KPH | rain 1hr cm | rain 24hr cm | rain mn cm | humidity % | barometer mb |
| 20260508213024 | 25 | 146 | 4.8 | 8.0 | 0.00 | 0.23 | 0.23 | 83 | 1008.6 |
| 20260508212606 | 25 | 140 | 4.8 | 11.3 | 0.00 | 0.23 | 0.23 | 83 | 1008.7 |
| 20260508212116 | 25 | 138 | 6.4 | 11.3 | 0.00 | 0.23 | 0.23 | 83 | 1008.7 |
| 20260508211523 | 25 | 114 | 3.2 | 11.3 | 0.00 | 0.23 | 0.23 | 84 | 1008.8 |
| 20260508211028 | 25 | 100 | 6.4 | 11.3 | 0.00 | 0.23 | 0.23 | 84 | 1008.8 |
| 20260508210638 | 24 | 144 | 4.8 | 9.7 | 0.00 | 0.23 | 0.23 | 84 | 1008.8 |
| 20260508210036 | 24 | 182 | 3.2 | 6.4 | 0.00 | 0.23 | 0.23 | 84 | 1008.9 |
| 20260508205545 | 24 | 182 | 3.2 | 8.0 | 0.00 | 0.23 | 0.23 | 84 | 1009.0 |
| 20260508204606 | 24 | 143 | 4.8 | 11.3 | 0.00 | 0.23 | 0.23 | 84 | 1009.1 |
| 20260508204055 | 24 | 142 | 4.8 | 8.0 | 0.00 | 0.23 | 0.23 | 84 | 1009.2 |
| 20260508203052 | 24 | 139 | 3.2 | 12.9 | 0.00 | 0.23 | 0.23 | 84 | 1009.2 |
| 20260508202605 | 24 | 150 | 8.0 | 12.9 | 0.00 | 0.23 | 0.23 | 84 | 1009.3 |
| 20260508202108 | 24 | 121 | 4.8 | 11.3 | 0.00 | 0.23 | 0.23 | 85 | 1009.4 |
| 20260508201534 | 23 | 173 | 6.4 | 17.7 | 0.00 | 0.23 | 0.23 | 84 | 1009.5 |
| 20260508201034 | 23 | 176 | 9.7 | 17.7 | 0.00 | 0.23 | 0.23 | 84 | 1009.7 |
| 20260508195522 | 23 | 140 | 4.8 | 8.0 | 0.00 | 0.23 | 0.23 | 84 | 1009.9 |
| 20260508195032 | 24 | 107 | 4.8 | 14.5 | 0.00 | 0.23 | 0.23 | 84 | 1009.9 |
| 20260508194612 | 24 | 90 | 6.4 | 14.5 | 0.00 | 0.23 | 0.23 | 85 | 1009.7 |
| 20260508194024 | 23 | 87 | 4.8 | 12.9 | 0.00 | 0.23 | 0.23 | 85 | 1009.8 |
| 20260508193607 | 23 | 145 | 6.4 | 12.9 | 0.00 | 0.23 | 0.23 | 85 | 1009.9 |
| 20260508193039 | 23 | 145 | 4.8 | 14.5 | 0.00 | 0.23 | 0.23 | 86 | 1009.9 |
| 20260508192543 | 23 | 159 | 9.7 | 14.5 | 0.00 | 0.23 | 0.23 | 85 | 1010.0 |
| 20260508191542 | 23 | 137 | 4.8 | 8.0 | 0.00 | 0.23 | 0.23 | 85 | 1010.1 |
| 20260508191051 | 23 | 108 | 4.8 | 6.4 | 0.00 | 0.23 | 0.23 | 85 | 1010.3 |
| 20260508190048 | 23 | 105 | 4.8 | 11.3 | 0.00 | 0.23 | 0.23 | 85 | 1010.4 |
| 20260508185558 | 23 | 91 | 6.4 | 11.3 | 0.00 | 0.23 | 0.23 | 86 | 1010.3 |
| 20260508184619 | 23 | 63 | 6.4 | 9.7 | 0.00 | 0.23 | 0.23 | 87 | 1010.4 |
| 20260508184102 | 22 | 99 | 1.6 | 11.3 | 0.00 | 0.23 | 0.23 | 86 | 1010.6 |
| 20260508183045 | 22 | 98 | 4.8 | 12.9 | 0.00 | 0.23 | 0.23 | 86 | 1010.8 |
| 20260508182534 | 22 | 83 | 4.8 | 12.9 | 0.00 | 0.23 | 0.23 | 87 | 1010.9 |
| 20260508181555 | 22 | 80 | 6.4 | 12.9 | 0.00 | 0.23 | 0.23 | 86 | 1010.9 |
| 20260508181107 | 22 | 26 | 6.4 | 9.7 | 0.00 | 0.23 | 0.23 | 87 | 1010.9 |
| 20260508180610 | 22 | 71 | 4.8 | 9.7 | 0.00 | 0.23 | 0.23 | 87 | 1011.0 |
| 20260508180034 | 21 | 119 | 4.8 | 12.9 | 0.00 | 0.23 | 0.23 | 87 | 1011.0 |
| 20260508175547 | 21 | 110 | 6.4 | 9.7 | 0.00 | 0.23 | 0.23 | 88 | 1011.1 |
| 20260508175031 | 21 | 113 | 4.8 | 11.3 | 0.00 | 0.23 | 0.23 | 88 | 1011.1 |
| 20260508174613 | 21 | 113 | 6.4 | 11.3 | 0.00 | 0.23 | 0.23 | 88 | 1011.1 |
| 20260508174027 | 21 | 138 | 4.8 | 11.3 | 0.00 | 0.23 | 0.23 | 88 | 1011.3 |
| 20260508173049 | 21 | 124 | 4.8 | 8.0 | 0.00 | 0.23 | 0.23 | 88 | 1011.4 |
| 20260508172600 | 21 | 128 | 4.8 | 12.9 | 0.00 | 0.23 | 0.23 | 88 | 1011.4 |
| 20260508172103 | 21 | 130 | 6.4 | 12.9 | 0.00 | 0.23 | 0.23 | 88 | 1011.5 |
| 20260508171530 | 20 | 120 | 4.8 | 9.7 | 0.00 | 0.23 | 0.23 | 88 | 1011.4 |
| 20260508171026 | 20 | 126 | 6.4 | 9.7 | 0.00 | 0.23 | 0.23 | 88 | 1011.6 |
| 20260508170053 | 20 | 137 | 3.2 | 11.3 | 0.00 | 0.23 | 0.23 | 88 | 1011.9 |
| 20260508165556 | 20 | 138 | 4.8 | 11.3 | 0.00 | 0.23 | 0.23 | 88 | 1012.0 |
| 20260508164621 | 20 | 145 | 3.2 | 11.3 | 0.00 | 0.23 | 0.23 | 88 | 1012.1 |
| 20260508164111 | 20 | 146 | 6.4 | 11.3 | 0.00 | 0.23 | 0.23 | 88 | 1012.1 |
| 20260508163620 | 20 | 159 | 4.8 | 8.0 | 0.00 | 0.23 | 0.23 | 88 | 1012.1 |
| 20260508163041 | 20 | 129 | 4.8 | 12.9 | 0.00 | 0.23 | 0.23 | 88 | 1012.0 |
| 20260508162551 | 20 | 77 | 6.4 | 16.1 | 0.00 | 0.23 | 0.23 | 88 | 1012.0 |
| 20260508161611 | 20 | 69 | 9.7 | 16.1 | 0.00 | 0.23 | 0.23 | 89 | 1011.8 |
| 20260508161041 | 20 | 70 | 9.7 | 16.1 | 0.00 | 0.23 | 0.23 | 89 | 1011.9 |
| 20260508155608 | 19 | 76 | 11.3 | 16.1 | 0.00 | 0.23 | 0.23 | 89 | 1011.9 |
| 20260508155119 | 19 | 62 | 8.0 | 14.5 | 0.00 | 0.23 | 0.23 | 89 | 1012.1 |
| 20260508154546 | 19 | 108 | 11.3 | 16.1 | 0.00 | 0.23 | 0.23 | 89 | 1012.2 |
| 20260508154049 | 19 | 87 | 11.3 | 20.9 | 0.00 | 0.23 | 0.23 | 89 | 1012.1 |
| 20260508153049 | 19 | 63 | 11.3 | 16.1 | 0.00 | 0.23 | 0.23 | 88 | 1012.1 |
| 20260508152533 | 19 | 84 | 9.7 | 19.3 | 0.00 | 0.23 | 0.23 | 89 | 1012.3 |
| 20260508151559 | 19 | 137 | 9.7 | 16.1 | 0.00 | 0.23 | 0.23 | 89 | 1012.3 |
| 20260508151045 | 18 | 84 | 9.7 | 16.1 | 0.00 | 0.23 | 0.23 | 89 | 1012.5 |
| 20260508150105 | 18 | 96 | 8.0 | 16.1 | 0.00 | 0.23 | 0.23 | 90 | 1012.6 |
| 20260508145616 | 18 | 80 | 8.0 | 14.5 | 0.00 | 0.23 | 0.23 | 90 | 1012.6 |
| 20260508145115 | 18 | 105 | 6.4 | 12.9 | 0.00 | 0.23 | 0.23 | 90 | 1012.8 |
| 20260508144525 | 18 | 85 | 8.0 | 12.9 | 0.00 | 0.23 | 0.23 | 90 | 1012.8 |
| 20260508144138 | 18 | 68 | 4.8 | 14.5 | 0.00 | 0.23 | 0.23 | 90 | 1012.8 |
| 20260508143621 | 18 | 77 | 11.3 | 14.5 | 0.00 | 0.23 | 0.23 | 90 | 1012.6 |
| 20260508143045 | 18 | 78 | 8.0 | 11.3 | 0.00 | 0.23 | 0.23 | 90 | 1012.7 |
| 20260508142555 | 17 | 78 | 8.0 | 9.7 | 0.00 | 0.23 | 0.23 | 91 | 1012.8 |
| 20260508141615 | 17 | 82 | 6.4 | 12.9 | 0.00 | 0.23 | 0.23 | 91 | 1012.6 |
| 20260508141122 | 17 | 80 | 4.8 | 12.9 | 0.00 | 0.23 | 0.23 | 91 | 1012.6 |
| 20260508140612 | 17 | 29 | 8.0 | 12.9 | 0.00 | 0.23 | 0.23 | 91 | 1012.5 |
| 20260508135530 | 17 | 71 | 9.7 | 12.9 | 0.00 | 0.23 | 0.23 | 91 | 1012.6 |
| 20260508134551 | 17 | 68 | 4.8 | 9.7 | 0.00 | 0.23 | 0.23 | 91 | 1012.8 |
| 20260508134101 | 17 | 53 | 4.8 | 9.7 | 0.00 | 0.23 | 0.23 | 90 | 1012.8 |
| 20260508133604 | 17 | 69 | 4.8 | 8.0 | 0.00 | 0.23 | 0.23 | 90 | 1012.8 |
| 20260508133034 | 17 | 75 | 4.8 | 8.0 | 0.00 | 0.23 | 0.23 | 90 | 1012.7 |
| 20260508132545 | 17 | 55 | 4.8 | 8.0 | 0.00 | 0.23 | 0.23 | 90 | 1012.6 |
| 20260508131605 | 17 | 49 | 3.2 | 9.7 | 0.00 | 0.23 | 0.23 | 90 | 1012.7 |
| 20260508131109 | 17 | 48 | 6.4 | 9.7 | 0.00 | 0.23 | 0.23 | 90 | 1012.8 |
| 20260508130553 | 17 | 37 | 3.2 | 9.7 | 0.00 | 0.23 | 0.23 | 90 | 1012.8 |
| 20260508130024 | 17 | 23 | 6.4 | 12.9 | 0.00 | 0.23 | 0.23 | 90 | 1012.9 |
| 20260508125526 | 17 | 40 | 4.8 | 12.9 | 0.00 | 0.23 | 0.23 | 89 | 1012.8 |
| 20260508124545 | 17 | 38 | 3.2 | 8.0 | 0.20 | 0.23 | 0.23 | 89 | 1012.9 |
| 20260508124054 | 17 | 39 | 3.2 | 8.0 | 0.20 | 0.23 | 0.23 | 89 | 1012.9 |
| 20260508123557 | 17 | 321 | 1.6 | 4.8 | 0.23 | 0.23 | 0.23 | 89 | 1012.9 |
| 20260508123030 | 17 | 321 | 1.6 | 3.2 | 0.23 | 0.23 | 0.23 | 88 | 1013.0 |
| 20260508122542 | 17 | 327 | 0.0 | 4.8 | 0.23 | 0.23 | 0.23 | 88 | 1013.0 |
| 20260508121601 | 17 | 327 | 3.2 | 4.8 | 0.23 | 0.23 | 0.23 | 88 | 1013.2 |
| 20260508121114 | 17 | 327 | 0.0 | 1.6 | 0.23 | 0.23 | 0.23 | 87 | 1013.2 |
| 20260508120616 | 17 | 327 | 0.0 | 3.2 | 0.23 | 0.23 | 0.23 | 87 | 1013.2 |
| 20260508120022 | 17 | 327 | 1.6 | 4.8 | 0.23 | 0.23 | 0.23 | 87 | 1013.2 |
| 20260508115525 | 17 | 327 | 1.6 | 4.8 | 0.23 | 0.23 | 0.23 | 87 | 1013.1 |
| 20260508115041 | 17 | 327 | 1.6 | 6.4 | 0.23 | 0.23 | 0.23 | 86 | 1012.9 |
| 20260508114524 | 17 | 323 | 3.2 | 6.4 | 0.13 | 0.13 | 0.13 | 86 | 1012.7 |
| 20260508114036 | 17 | 304 | 4.8 | 9.7 | 0.03 | 0.03 | 0.03 | 85 | 1012.9 |
| 20260508113620 | 17 | 310 | 4.8 | 9.7 | 0.03 | 0.03 | 0.03 | 85 | 1013.0 |
| 20260508113045 | 17 | 350 | 1.6 | 6.4 | 0.00 | 0.00 | 0.00 | 85 | 1012.5 |
| 20260508112558 | 17 | 10 | 0.0 | 1.6 | 0.00 | 0.00 | 0.00 | 85 | 1012.7 |
| 20260508112117 | 17 | 10 | 0.0 | 4.8 | 0.00 | 0.00 | 0.00 | 85 | 1012.6 |
| 20260508111540 | 17 | 5 | 0.0 | 6.4 | 0.00 | 0.00 | 0.00 | 85 | 1012.6 |
| 20260508111025 | 17 | 355 | 3.2 | 6.4 | 0.00 | 0.00 | 0.00 | 84 | 1012.6 |
| 20260508110045 | 17 | 342 | 0.0 | 8.0 | 0.00 | 0.00 | 0.00 | 85 | 1012.4 |
| 20260508105555 | 17 | 355 | 4.8 | 8.0 | 0.00 | 0.00 | 0.00 | 85 | 1012.4 |
| 20260508104620 | 17 | 24 | 3.2 | 8.0 | 0.00 | 0.00 | 0.00 | 84 | 1012.4 |
| 20260508104109 | 17 | 32 | 3.2 | 8.0 | 0.00 | 0.00 | 0.00 | 85 | 1012.4 |
| 20260508103612 | 17 | 34 | 4.8 | 8.0 | 0.00 | 0.00 | 0.00 | 84 | 1012.5 |
| 20260508103039 | 17 | 57 | 4.8 | 8.0 | 0.00 | 0.00 | 0.00 | 84 | 1012.7 |
| 20260508102549 | 17 | 53 | 4.8 | 8.0 | 0.00 | 0.00 | 0.00 | 85 | 1012.8 |
| 20260508101542 | 17 | 48 | 3.2 | 8.0 | 0.00 | 0.00 | 0.00 | 84 | 1012.9 |
| 20260508101053 | 17 | 60 | 4.8 | 9.7 | 0.00 | 0.00 | 0.00 | 84 | 1012.7 |
| 20260508100051 | 17 | 74 | 6.4 | 8.0 | 0.00 | 0.00 | 0.00 | 84 | 1012.6 |
| 20260508095604 | 17 | 32 | 4.8 | 6.4 | 0.00 | 0.00 | 0.00 | 84 | 1012.7 |
| 20260508094604 | 17 | 30 | 6.4 | 12.9 | 0.00 | 0.00 | 0.00 | 84 | 1012.6 |
| 20260508094103 | 17 | 36 | 4.8 | 12.9 | 0.00 | 0.00 | 0.00 | 84 | 1012.4 |
| 20260508093109 | 17 | 32 | 4.8 | 8.0 | 0.00 | 0.00 | 0.00 | 84 | 1012.7 |
| 20260508092612 | 17 | 30 | 4.8 | 8.0 | 0.00 | 0.00 | 0.00 | 84 | 1012.7 |
| 20260508091559 | 17 | 37 | 3.2 | 8.0 | 0.00 | 0.00 | 0.00 | 84 | 1012.7 |
| 20260508091101 | 17 | 48 | 4.8 | 8.0 | 0.00 | 0.00 | 0.00 | 84 | 1012.7 |
| 20260508090049 | 17 | 59 | 3.2 | 8.0 | 0.00 | 0.00 | 0.00 | 84 | 1012.3 |
| 20260508085559 | 17 | 53 | 1.6 | 8.0 | 0.00 | 0.00 | 0.00 | 84 | 1012.3 |
| 20260508084622 | 17 | 49 | 4.8 | 8.0 | 0.00 | 0.00 | 0.00 | 84 | 1012.3 |
| 20260508084111 | 17 | 42 | 4.8 | 11.3 | 0.00 | 0.00 | 0.00 | 84 | 1012.6 |
| 20260508083614 | 17 | 45 | 6.4 | 11.3 | 0.00 | 0.00 | 0.00 | 84 | 1012.5 |
| 20260508083024 | 17 | 53 | 4.8 | 14.5 | 0.00 | 0.00 | 0.00 | 84 | 1012.2 |
| 20260508082535 | 17 | 55 | 6.4 | 14.5 | 0.00 | 0.00 | 0.00 | 84 | 1012.0 |
| 20260508081556 | 17 | 70 | 4.8 | 6.4 | 0.00 | 0.00 | 0.00 | 84 | 1012.2 |
| 20260508081059 | 17 | 49 | 3.2 | 14.5 | 0.00 | 0.00 | 0.00 | 84 | 1012.4 |
| 20260508080604 | 17 | 46 | 4.8 | 14.5 | 0.00 | 0.00 | 0.00 | 84 | 1012.5 |
| 20260508075523 | 17 | 29 | 6.4 | 9.7 | 0.00 | 0.00 | 0.00 | 84 | 1012.8 |
| 20260508075113 | 17 | 355 | 4.8 | 9.7 | 0.00 | 0.00 | 0.00 | 84 | 1012.6 |
| 20260508074535 | 17 | 42 | 6.4 | 9.7 | 0.00 | 0.00 | 0.00 | 84 | 1012.7 |
| 20260508074049 | 17 | 60 | 4.8 | 8.0 | 0.00 | 0.00 | 0.00 | 84 | 1012.9 |
| 20260508073110 | 17 | 38 | 3.2 | 9.7 | 0.00 | 0.00 | 0.00 | 84 | 1013.1 |
| 20260508072558 | 17 | 38 | 4.8 | 9.7 | 0.00 | 0.00 | 0.00 | 84 | 1013.2 |
| 20260508071619 | 17 | 360 | 3.2 | 6.4 | 0.00 | 0.00 | 0.00 | 84 | 1013.5 |
| 20260508071131 | 17 | 342 | 3.2 | 8.0 | 0.00 | 0.00 | 0.00 | 84 | 1013.7 |
| 20260508070613 | 17 | 336 | 4.8 | 8.0 | 0.00 | 0.00 | 0.00 | 84 | 1013.8 |
| 20260508070038 | 17 | 344 | 6.4 | 8.0 | 0.00 | 0.00 | 0.00 | 84 | 1013.9 |
| 20260508065545 | 17 | 18 | 4.8 | 8.0 | 0.00 | 0.00 | 0.00 | 84 | 1013.8 |
| 20260508065028 | 17 | 25 | 3.2 | 8.0 | 0.00 | 0.00 | 0.00 | 84 | 1013.5 |
| 20260508064529 | 17 | 27 | 3.2 | 8.0 | 0.00 | 0.00 | 0.00 | 84 | 1013.4 |
| 20260508064039 | 17 | 360 | 4.8 | 8.0 | 0.00 | 0.00 | 0.00 | 84 | 1013.5 |
| 20260508063523 | 17 | 351 | 3.2 | 14.5 | 0.00 | 0.00 | 0.00 | 84 | 1013.4 |
| 20260508063043 | 17 | 349 | 8.0 | 14.5 | 0.00 | 0.00 | 0.00 | 84 | 1013.4 |
| 20260508062531 | 17 | 329 | 6.4 | 14.5 | 0.00 | 0.00 | 0.00 | 84 | 1013.6 |
| 20260508062040 | 17 | 33 | 8.0 | 14.5 | 0.00 | 0.00 | 0.00 | 84 | 1013.2 |
| 20260508061531 | 17 | 22 | 8.0 | 14.5 | 0.00 | 0.00 | 0.00 | 84 | 1012.7 |
| 20260508061040 | 17 | 31 | 6.4 | 9.7 | 0.00 | 0.00 | 0.00 | 84 | 1012.7 |
| 20260508060528 | 17 | 49 | 6.4 | 9.7 | 0.00 | 0.00 | 0.00 | 84 | 1012.8 |
| 20260508060022 | 17 | 25 | 4.8 | 8.0 | 0.00 | 0.00 | 0.00 | 84 | 1013.1 |
| 20260508055533 | 17 | 27 | 4.8 | 8.0 | 0.00 | 0.00 | 0.00 | 84 | 1013.4 |
| 20260508055042 | 17 | 55 | 3.2 | 6.4 | 0.00 | 0.00 | 0.00 | 84 | 1013.5 |
| 20260508054602 | 17 | 61 | 1.6 | 6.4 | 0.00 | 0.00 | 0.00 | 84 | 1013.5 |
| 20260508054023 | 17 | 61 | 3.2 | 12.9 | 0.00 | 0.00 | 0.00 | 84 | 1013.2 |
| 20260508053530 | 17 | 36 | 6.4 | 14.5 | 0.00 | 0.00 | 0.00 | 84 | 1013.1 |
| 20260508053022 | 17 | 322 | 8.0 | 9.7 | 0.00 | 0.00 | 0.00 | 84 | 1013.8 |
| 20260508052530 | 17 | 340 | 4.8 | 8.0 | 0.00 | 0.00 | 0.00 | 84 | 1013.5 |
| 20260508052041 | 17 | 342 | 1.6 | 8.0 | 0.00 | 0.00 | 0.00 | 83 | 1013.1 |
| 20260508051540 | 17 | 340 | 3.2 | 8.0 | 0.00 | 0.00 | 0.00 | 84 | 1013.3 |
| 20260508051041 | 17 | 336 | 3.2 | 8.0 | 0.00 | 0.00 | 0.00 | 83 | 1013.4 |
| 20260508050531 | 17 | 331 | 4.8 | 12.9 | 0.00 | 0.00 | 0.00 | 84 | 1013.5 |
| 20260508045524 | 17 | 323 | 6.4 | 9.7 | 0.00 | 0.00 | 0.00 | 83 | 1014.0 |
| 20260508044542 | 17 | 337 | 3.2 | 6.4 | 0.00 | 0.00 | 0.00 | 83 | 1013.9 |
| 20260508044038 | 17 | 337 | 4.8 | 9.7 | 0.00 | 0.00 | 0.00 | 82 | 1013.8 |
| 20260508043617 | 17 | 339 | 4.8 | 9.7 | 0.00 | 0.00 | 0.00 | 82 | 1013.8 |
| 20260508043048 | 17 | 46 | 4.8 | 6.4 | 0.00 | 0.00 | 0.00 | 82 | 1013.8 |
| 20260508042558 | 17 | 49 | 3.2 | 4.8 | 0.00 | 0.00 | 0.00 | 81 | 1013.8 |
| 20260508042058 | 17 | 49 | 1.6 | 6.4 | 0.00 | 0.00 | 0.00 | 81 | 1013.7 |
| 20260508041529 | 17 | 49 | 4.8 | 6.4 | 0.00 | 0.00 | 0.00 | 81 | 1013.7 |
| 20260508041034 | 17 | 50 | 4.8 | 6.4 | 0.00 | 0.00 | 0.00 | 81 | 1013.9 |
| 20260508035604 | 17 | 74 | 4.8 | 4.8 | 0.00 | 0.00 | 0.00 | 80 | 1013.6 |
| 20260508035115 | 17 | 75 | 3.2 | 8.0 | 0.00 | 0.00 | 0.00 | 80 | 1013.4 |
| 20260508034536 | 17 | 75 | 6.4 | 8.0 | 0.00 | 0.00 | 0.00 | 80 | 1013.2 |
| 20260508034048 | 17 | 92 | 3.2 | 12.9 | 0.00 | 0.00 | 0.00 | 79 | 1013.2 |
| 20260508033029 | 17 | 69 | 9.7 | 16.1 | 0.00 | 0.00 | 0.00 | 79 | 1012.8 |
| 20260508032541 | 17 | 72 | 9.7 | 16.1 | 0.00 | 0.00 | 0.00 | 79 | 1012.7 |
| 20260508031556 | 17 | 71 | 9.7 | 14.5 | 0.00 | 0.00 | 0.00 | 79 | 1013.1 |
| 20260508031059 | 17 | 67 | 4.8 | 12.9 | 0.00 | 0.00 | 0.00 | 79 | 1013.0 |
| 20260508030610 | 17 | 59 | 4.8 | 16.1 | 0.00 | 0.00 | 0.00 | 78 | 1013.1 |
| 20260508030135 | 17 | 61 | 12.9 | 17.7 | 0.00 | 0.00 | 0.00 | 78 | 1012.8 |
| 20260508025624 | 17 | 76 | 12.9 | 17.7 | 0.00 | 0.00 | 0.00 | 78 | 1012.5 |
| 20260508024624 | 17 | 54 | 4.8 | 11.3 | 0.00 | 0.00 | 0.00 | 78 | 1012.7 |
| 20260508024119 | 17 | 26 | 4.8 | 12.9 | 0.00 | 0.00 | 0.00 | 78 | 1013.5 |
| 20260508023119 | 17 | 20 | 8.0 | 14.5 | 0.00 | 0.00 | 0.00 | 78 | 1013.3 |
| 20260508022609 | 17 | 38 | 3.2 | 6.4 | 0.00 | 0.00 | 0.00 | 78 | 1013.6 |
| 20260508022112 | 17 | 51 | 4.8 | 8.0 | 0.00 | 0.00 | 0.00 | 78 | 1013.5 |
| 20260508021538 | 17 | 78 | 6.4 | 8.0 | 0.00 | 0.00 | 0.00 | 78 | 1013.4 |
| 20260508021041 | 17 | 81 | 4.8 | 9.7 | 0.00 | 0.00 | 0.00 | 78 | 1013.0 |
| 20260508020041 | 18 | 74 | 8.0 | 11.3 | 0.00 | 0.00 | 0.00 | 78 | 1013.0 |
| 20260508015553 | 18 | 69 | 6.4 | 9.7 | 0.00 | 0.00 | 0.00 | 78 | 1013.0 |
| 20260508014617 | 18 | 74 | 6.4 | 9.7 | 0.00 | 0.00 | 0.00 | 78 | 1013.1 |
| 20260508014105 | 18 | 47 | 4.8 | 6.4 | 0.00 | 0.00 | 0.00 | 77 | 1013.4 |
| 20260508013127 | 18 | 29 | 3.2 | 9.7 | 0.00 | 0.00 | 0.00 | 77 | 1013.9 |
| 20260508012610 | 18 | 5 | 6.4 | 9.7 | 0.00 | 0.00 | 0.00 | 76 | 1013.9 |
| 20260508012120 | 18 | 13 | 6.4 | 9.7 | 0.00 | 0.00 | 0.00 | 76 | 1013.7 |
| 20260508011548 | 18 | 355 | 6.4 | 9.7 | 0.00 | 0.00 | 0.00 | 76 | 1013.7 |
| 20260508011054 | 18 | 5 | 4.8 | 6.4 | 0.00 | 0.00 | 0.00 | 76 | 1013.6 |
| 20260508010114 | 18 | 37 | 4.8 | 6.4 | 0.00 | 0.00 | 0.00 | 75 | 1013.5 |
| 20260508005530 | 19 | 38 | 3.2 | 9.7 | 0.00 | 0.00 | 0.00 | 74 | 1013.6 |
| 20260508004551 | 19 | 351 | 4.8 | 11.3 | 0.00 | 0.00 | 0.00 | 74 | 1013.7 |
| 20260508004104 | 19 | 348 | 4.8 | 11.3 | 0.00 | 0.00 | 0.00 | 74 | 1013.5 |
| 20260508003609 | 19 | 38 | 6.4 | 12.9 | 0.00 | 0.00 | 0.00 | 74 | 1013.4 |
| 20260508003035 | 19 | 51 | 4.8 | 12.9 | 0.00 | 0.00 | 0.00 | 74 | 1013.4 |
| 20260508002548 | 19 | 19 | 3.2 | 14.5 | 0.00 | 0.00 | 0.00 | 74 | 1013.5 |
| 20260508002109 | 19 | 350 | 8.0 | 14.5 | 0.00 | 0.00 | 0.00 | 73 | 1013.7 |
| 20260508001541 | 20 | 350 | 6.4 | 16.1 | 0.00 | 0.00 | 0.00 | 73 | 1013.6 |
| 20260508001046 | 20 | 32 | 8.0 | 16.1 | 0.00 | 0.00 | 0.00 | 73 | 1013.8 |
| 20260508000047 | 20 | 37 | 11.3 | 14.5 | 0.00 | 0.00 | 0.00 | 72 | 1013.7 |
| 20260507235556 | 20 | 25 | 6.4 | 12.9 | 0.00 | 0.00 | 0.00 | 72 | 1013.9 |
| 20260507234616 | 20 | 348 | 6.4 | 14.5 | 0.00 | 0.00 | 0.00 | 72 | 1014.0 |
| 20260507234108 | 20 | 39 | 6.4 | 17.7 | 0.00 | 0.00 | 0.00 | 72 | 1014.3 |
| 20260507233109 | 20 | 316 | 9.7 | 17.7 | 0.00 | 0.00 | 0.00 | 70 | 1014.2 |
| 20260507232557 | 20 | 28 | 9.7 | 17.7 | 0.00 | 0.00 | 0.00 | 71 | 1014.1 |
| 20260507231535 | 20 | 16 | 9.7 | 17.7 | 0.00 | 0.00 | 0.00 | 71 | 1013.9 |
| 20260507231043 | 20 | 46 | 6.4 | 20.9 | 0.00 | 0.00 | 0.00 | 71 | 1013.9 |
| 20260507230044 | 20 | 5 | 6.4 | 20.9 | 0.00 | 0.00 | 0.00 | 71 | 1013.9 |
| 20260507225556 | 20 | 44 | 11.3 | 20.9 | 0.00 | 0.00 | 0.00 | 70 | 1014.1 |
| 20260507224557 | 20 | 5 | 14.5 | 22.5 | 0.00 | 0.00 | 0.00 | 70 | 1014.6 |
| 20260507224107 | 20 | 355 | 11.3 | 19.3 | 0.00 | 0.00 | 0.00 | 71 | 1014.3 |
| 20260507223612 | 20 | 323 | 11.3 | 20.9 | 0.00 | 0.00 | 0.00 | 72 | 1014.3 |
| 20260507223040 | 20 | 341 | 14.5 | 22.5 | 0.00 | 0.00 | 0.00 | 71 | 1014.2 |
| 20260507222529 | 20 | 341 | 11.3 | 24.1 | 0.00 | 0.00 | 0.00 | 72 | 1014.3 |
| 20260507222115 | 20 | 331 | 14.5 | 24.1 | 0.00 | 0.00 | 0.00 | 72 | 1014.2 |
| 20260507221546 | 20 | 355 | 9.7 | 20.9 | 0.00 | 0.00 | 0.00 | 72 | 1014.0 |
| 20260507221049 | 20 | 349 | 9.7 | 17.7 | 0.00 | 0.00 | 0.00 | 72 | 1013.9 |
| 20260507220640 | 20 | 355 | 8.0 | 24.1 | 0.00 | 0.00 | 0.00 | 72 | 1013.8 |
| 20260507220036 | 20 | 360 | 17.7 | 24.1 | 0.00 | 0.00 | 0.00 | 70 | 1014.0 |
| 20260507215546 | 20 | 355 | 11.3 | 19.3 | 0.00 | 0.00 | 0.00 | 72 | 1013.9 |
| 20260507214606 | 20 | 13 | 8.0 | 19.3 | 0.00 | 0.00 | 0.00 | 71 | 1013.7 |
| 20260507214117 | 20 | 26 | 8.0 | 17.7 | 0.00 | 0.00 | 0.00 | 71 | 1013.7 |
| 20260507213559 | 20 | 34 | 8.0 | 16.1 | 0.00 | 0.00 | 0.00 | 71 | 1013.6 |